EW1476 Weather Reports


Display with metric or nautical units.
time (UTC)temp
F
wind
direction
speed
MPH
gust
MPH
rain 1hr
in
rain 24hr
in
rain mn
in
humidity
%
barometer
mb
20260505214535 79 127 0.0 3.0 0.00 0.00 0.00 32 1009.4
20260505213027 79 135 1.0 5.0 0.00 0.00 0.00 31 1009.4
20260505211524 80 205 1.0 5.0 0.00 0.00 0.00 30 1009.3
20260505210022 80 210 0.0 6.0 0.00 0.00 0.00 32 1009.2
20260505204520 80 278 2.0 6.0 0.00 0.00 0.00 28 1009.2
20260505203002 81 165 2.0 5.0 0.00 0.00 0.00 29 1009.2
20260505201509 81 253 2.0 5.0 0.00 0.00 0.00 29 1009.3
20260505200008 80 108 1.0 4.0 0.00 0.00 0.00 31 1009.3
20260505194518 80 210 1.0 3.0 0.00 0.00 0.00 31 1009.7
20260505193014 80 193 2.0 6.0 0.00 0.00 0.00 32 1009.8
20260505191504 80 160 2.0 6.0 0.00 0.00 0.00 32 1009.9
20260505190004 80 249 1.0 3.0 0.00 0.00 0.00 32 1010.1
20260505184512 80 220 2.0 7.0 0.00 0.00 0.00 32 1010.2
20260505183013 80 150 1.0 4.0 0.00 0.00 0.00 35 1010.4
20260505181508 79 226 2.0 5.0 0.00 0.00 0.00 32 1010.8
20260505180004 79 223 2.0 5.0 0.00 0.00 0.00 35 1011.2
20260505174504 78 205 1.0 5.0 0.00 0.00 0.00 35 1011.2
20260505173004 78 217 2.0 5.0 0.00 0.00 0.00 33 1011.3
20260505171516 77 289 1.0 4.0 0.00 0.00 0.00 36 1011.4
20260505170025 77 281 2.0 5.0 0.00 0.00 0.00 35 1011.6
20260505164517 77 229 0.0 3.0 0.00 0.00 0.00 40 1011.8
20260505163009 76 200 1.0 4.0 0.00 0.00 0.00 40 1011.9
20260505161504 75 239 1.0 5.0 0.00 0.00 0.00 42 1012.1
20260505153022 74 255 1.0 4.0 0.00 0.00 0.00 45 1012.3
20260505151514 74 203 0.0 4.0 0.00 0.00 0.00 44 1012.2
20260505124523 62 228 0.0 0.0 0.00 0.00 0.00 62 1013.0
20260505123023 61 207 0.0 0.0 0.00 0.00 0.00 63 1013.0
20260505121518 60 265 0.0 0.0 0.00 0.00 0.00 65 1013.0
20260505120015 59 209 0.0 0.0 0.00 0.00 0.00 66 1012.8
20260505114527 57 196 0.0 0.0 0.00 0.00 0.00 68 1012.7
20260505113009 57 195 0.0 0.0 0.00 0.00 0.00 69 1012.5
20260505111508 56 195 0.0 0.0 0.00 0.00 0.00 71 1012.4
20260505101516 57 195 0.0 0.0 0.00 0.00 0.00 69 1011.7
20260505100012 57 195 0.0 0.0 0.00 0.00 0.00 68 1011.7
20260505094510 57 195 0.0 0.0 0.00 0.00 0.00 68 1011.6
20260505093009 57 195 0.0 0.0 0.00 0.00 0.00 68 1011.5
20260505091532 57 195 0.0 0.0 0.00 0.00 0.00 68 1011.4
20260505090022 58 195 0.0 0.0 0.00 0.00 0.00 68 1011.4
20260505084520 58 200 0.0 0.0 0.00 0.00 0.00 68 1011.3
20260505083020 58 200 0.0 0.0 0.00 0.00 0.00 69 1011.4
20260505081511 58 200 0.0 0.0 0.00 0.00 0.00 68 1011.4
20260505080023 59 210 0.0 0.0 0.00 0.00 0.00 67 1011.2
20260505074526 59 211 0.0 0.0 0.00 0.00 0.00 66 1011.1
20260505073024 60 212 0.0 0.0 0.00 0.00 0.00 65 1011.1
20260505071519 60 157 0.0 0.0 0.00 0.00 0.00 64 1011.0
20260505070018 60 156 0.0 1.0 0.00 0.00 0.00 65 1011.0
20260505064514 60 148 0.0 1.0 0.00 0.00 0.00 65 1011.1
20260505063010 60 207 0.0 0.0 0.00 0.00 0.00 65 1011.2
20260505061537 60 207 0.0 0.0 0.00 0.00 0.00 65 1011.3
20260505060027 61 207 0.0 0.0 0.00 0.00 0.00 64 1011.2
20260505054524 61 207 0.0 0.0 0.00 0.00 0.00 63 1011.2
20260505053022 61 207 0.0 0.0 0.00 0.00 0.00 62 1011.3
20260505051516 62 207 0.0 1.0 0.00 0.00 0.00 61 1011.3
20260505041506 62 217 0.0 1.0 0.00 0.00 0.00 58 1011.2
20260505040006 62 194 0.0 0.0 0.00 0.00 0.00 57 1011.2
20260505034520 63 208 0.0 0.0 0.00 0.00 0.00 55 1011.1
20260505033019 63 213 0.0 0.0 0.00 0.00 0.00 54 1011.2
20260505031514 64 219 0.0 0.0 0.00 0.00 0.00 53 1011.3
20260505030012 64 220 0.0 0.0 0.00 0.00 0.00 52 1011.2
20260505024517 64 213 0.0 0.0 0.00 0.00 0.00 52 1011.2
20260505023022 65 213 0.0 0.0 0.00 0.00 0.00 51 1011.2
20260505021524 66 214 0.0 0.0 0.00 0.00 0.00 50 1011.1
20260505020021 66 214 0.0 0.0 0.00 0.00 0.00 48 1011.0
20260505014515 67 214 0.0 0.0 0.00 0.00 0.00 47 1011.0
20260505013021 67 213 0.0 1.0 0.00 0.00 0.00 47 1010.7
20260505011508 68 205 0.0 1.0 0.00 0.00 0.00 45 1010.6
20260505010024 68 201 0.0 1.0 0.00 0.00 0.00 45 1010.3
20260505004526 68 208 0.0 2.0 0.00 0.00 0.00 45 1010.2
20260505003020 69 211 0.0 2.0 0.00 0.00 0.00 43 1010.2
20260505001518 69 219 0.0 2.0 0.00 0.00 0.00 44 1010.2
20260505000027 69 201 0.0 2.0 0.00 0.00 0.00 42 1010.2
20260504234509 70 207 0.0 1.0 0.00 0.00 0.00 41 1010.1
20260504233025 71 220 1.0 3.0 0.00 0.00 0.00 39 1010.0
20260504231531 71 207 0.0 2.0 0.00 0.00 0.00 38 1010.0
20260504230024 72 205 0.0 3.0 0.00 0.00 0.00 39 1010.1
20260504224522 72 191 0.0 1.0 0.00 0.00 0.00 40 1010.0
20260504223015 73 228 0.0 4.0 0.00 0.00 0.00 37 1010.0
20260504221530 72 203 1.0 3.0 0.00 0.00 0.00 36 1009.8
20260504220017 72 208 0.0 2.0 0.00 0.00 0.00 38 1009.9